Time,TemperatureF,DewpointF,PressureIn,WindDirection,WindDirectionDegrees,WindSpeedMPH,WindSpeedGustMPH,Humidity,HourlyPrecipIn,Conditions,Clouds,dailyrainin,SoftwareType,DateUTC
2013-04-14 00:11:00,46.8,34.0,29.96,South,176,4.0,-999.0,61,-99.99,,,0.18,weatherlink.com 1.10,2013-04-14 04:11:00,
2013-04-14 00:26:00,46.4,34.0,29.95,South,175,2.0,-999.0,62,-99.99,,,0.01,weatherlink.com 1.10,2013-04-14 04:26:00,
2013-04-14 00:41:00,46.1,34.0,29.94,South,169,5.0,-999.0,63,-99.99,,,0.01,weatherlink.com 1.10,2013-04-14 04:41:00,
2013-04-14 00:56:00,46.1,34.0,29.94,SW,224,2.0,-999.0,62,-99.99,,,0.01,weatherlink.com 1.10,2013-04-14 04:56:00,
2013-04-14 01:11:00,46.4,33.0,29.95,South,182,4.0,-999.0,61,-99.99,,,0.01,weatherlink.com 1.10,2013-04-14 05:11:00,
2013-04-14 01:26:00,46.4,33.0,29.95,SSW,200,0.0,-999.0,61,-99.99,,,0.01,weatherlink.com 1.10,2013-04-14 05:26:00,
2013-04-14 01:41:00,46.1,34.0,29.95,South,182,0.0,-999.0,62,-99.99,,,0.01,weatherlink.com 1.10,2013-04-14 05:41:00,
2013-04-14 01:56:00,45.7,34.0,29.95,SW,223,0.0,-999.0,63,-99.99,,,0.01,weatherlink.com 1.10,2013-04-14 05:56:00,
2013-04-14 02:11:00,45.5,33.0,29.95,SSW,205,0.0,-999.0,63,-99.99,,,0.01,weatherlink.com 1.10,2013-04-14 06:11:00,
2013-04-14 02:26:00,44.6,34.0,29.95,SSW,205,2.0,-999.0,67,-99.99,,,0.01,weatherlink.com 1.10,2013-04-14 06:26:00,
2013-04-14 02:41:00,42.9,34.0,29.96,SSW,200,1.0,-999.0,72,-99.99,,,0.01,weatherlink.com 1.10,2013-04-14 06:41:00,
2013-04-14 02:56:00,42.6,33.0,29.96,SW,219,0.0,-999.0,70,-99.99,,,0.01,weatherlink.com 1.10,2013-04-14 06:56:00,
2013-04-14 03:11:00,44.1,33.0,29.96,SW,219,0.0,-999.0,64,-99.99,,,0.01,weatherlink.com 1.10,2013-04-14 07:11:00,
2013-04-14 03:26:00,45.7,33.0,29.96,SSW,205,1.0,-999.0,62,-99.99,,,0.01,weatherlink.com 1.10,2013-04-14 07:26:00,
2013-04-14 03:41:00,44.2,33.0,29.95,SSW,203,0.0,-999.0,65,-99.99,,,0.01,weatherlink.com 1.10,2013-04-14 07:41:00,
2013-04-14 03:56:00,42.8,34.0,29.96,SSW,203,0.0,-999.0,70,-99.99,,,0.02,weatherlink.com 1.10,2013-04-14 07:56:00,
2013-04-14 04:11:00,42.8,33.0,29.97,SSW,203,0.0,-999.0,69,-99.99,,,0.02,weatherlink.com 1.10,2013-04-14 08:11:00,
2013-04-14 04:26:00,43.1,32.0,29.98,SSW,205,0.0,-999.0,66,-99.99,,,0.02,weatherlink.com 1.10,2013-04-14 08:26:00,
2013-04-14 04:41:00,43.8,33.0,29.97,West,260,2.0,-999.0,66,-99.99,,,0.02,weatherlink.com 1.10,2013-04-14 08:41:00,
2013-04-14 05:11:00,41.9,32.0,29.97,SSW,198,1.0,-999.0,68,-99.99,,,0.02,weatherlink.com 1.10,2013-04-14 09:11:00,
2013-04-14 05:26:00,43.2,32.0,29.98,SSW,198,0.0,-999.0,65,-99.99,,,0.02,weatherlink.com 1.10,2013-04-14 09:26:00,
2013-04-14 05:41:00,44.2,32.0,29.98,SSW,198,2.0,-999.0,62,-99.99,,,0.02,weatherlink.com 1.10,2013-04-14 09:41:00,
2013-04-14 05:56:00,42.9,32.0,29.97,SSW,199,1.0,-999.0,65,-99.99,,,0.02,weatherlink.com 1.10,2013-04-14 09:56:00,
2013-04-14 06:11:00,43.2,32.0,29.98,SSW,198,0.0,-999.0,64,-99.99,,,0.02,weatherlink.com 1.10,2013-04-14 10:11:00,
2013-04-14 06:26:00,42.9,33.0,29.98,SSW,199,0.0,-999.0,67,-99.99,,,0.02,weatherlink.com 1.10,2013-04-14 10:26:00,
2013-04-14 06:41:00,41.6,32.0,29.99,SSW,199,0.0,-999.0,70,-99.99,,,0.02,weatherlink.com 1.10,2013-04-14 10:41:00,
2013-04-14 06:56:00,40.6,32.0,30.00,SSW,199,0.0,-999.0,72,-99.99,,,0.02,weatherlink.com 1.10,2013-04-14 10:56:00,
2013-04-14 07:11:00,40.2,32.0,30.00,SW,220,0.0,-999.0,73,-99.99,,,0.02,weatherlink.com 1.10,2013-04-14 11:11:00,
2013-04-14 07:26:00,40.9,32.0,30.02,SW,220,0.0,-999.0,71,-99.99,,,0.02,weatherlink.com 1.10,2013-04-14 11:26:00,
2013-04-14 07:41:00,42.6,33.0,30.04,SW,220,1.0,-999.0,69,-99.99,,,0.02,weatherlink.com 1.10,2013-04-14 11:41:00,
2013-04-14 07:56:00,43.9,34.0,30.03,SW,220,0.0,-999.0,68,-99.99,,,0.02,weatherlink.com 1.10,2013-04-14 11:56:00,
2013-04-14 08:11:00,47.7,32.0,30.01,SSW,202,0.0,-999.0,56,-99.99,,,0.02,weatherlink.com 1.10,2013-04-14 12:11:00,
2013-04-14 08:26:00,51.7,31.0,30.02,South,189,0.0,-999.0,45,-99.99,,,0.02,weatherlink.com 1.10,2013-04-14 12:26:00,
2013-04-14 08:42:00,54.5,30.0,30.01,NNW,335,0.0,-999.0,40,-99.99,,,0.02,weatherlink.com 1.10,2013-04-14 12:42:00,
2013-04-14 08:57:00,56.5,30.0,30.01,NE,55,0.0,-999.0,37,-99.99,,,0.02,weatherlink.com 1.10,2013-04-14 12:57:00,
2013-04-14 09:12:00,57.6,29.0,30.00,NNE,23,0.0,-999.0,33,-99.99,,,0.02,weatherlink.com 1.10,2013-04-14 13:12:00,
2013-04-14 09:27:00,58.9,27.0,30.02,NNE,28,7.0,-999.0,30,-99.99,,,0.03,weatherlink.com 1.10,2013-04-14 13:27:00,
2013-04-14 09:42:00,60.5,33.0,30.02,WSW,240,1.0,-999.0,35,-99.99,,,0.03,weatherlink.com 1.10,2013-04-14 13:42:00,
2013-04-14 09:57:00,61.6,31.0,30.01,North,4,0.0,-999.0,32,-99.99,,,0.03,weatherlink.com 1.10,2013-04-14 13:57:00,
2013-04-14 10:12:00,62.3,31.0,30.01,SSE,167,0.0,-999.0,31,-99.99,,,0.03,weatherlink.com 1.10,2013-04-14 14:12:00,
2013-04-14 10:27:00,63.4,34.0,30.00,SE,144,0.0,-999.0,34,-99.99,,,0.03,weatherlink.com 1.10,2013-04-14 14:27:00,
2013-04-14 10:42:00,64.0,33.0,29.99,North,4,5.0,-999.0,31,-99.99,,,0.03,weatherlink.com 1.10,2013-04-14 14:42:00,
2013-04-14 10:57:00,64.5,34.0,29.99,NNW,339,0.0,-999.0,32,-99.99,,,0.03,weatherlink.com 1.10,2013-04-14 14:57:00,
2013-04-14 11:12:00,65.0,34.0,29.99,SSW,203,4.0,-999.0,31,-99.99,,,0.03,weatherlink.com 1.10,2013-04-14 15:12:00,
2013-04-14 11:27:00,65.6,34.0,29.98,NE,49,0.0,-999.0,31,-99.99,,,0.03,weatherlink.com 1.10,2013-04-14 15:27:00,
2013-04-14 11:42:00,66.9,38.0,29.98,North,0,2.0,-999.0,34,-99.99,,,0.03,weatherlink.com 1.10,2013-04-14 15:42:00,
2013-04-14 11:57:00,66.8,36.0,29.98,NNE,16,0.0,-999.0,32,-99.99,,,0.03,weatherlink.com 1.10,2013-04-14 15:57:00,
2013-04-14 12:12:00,66.8,35.0,29.98,SSE,168,0.0,-999.0,31,-99.99,,,0.04,weatherlink.com 1.10,2013-04-14 16:12:00,
2013-04-14 12:27:00,66.8,35.0,29.99,SSW,195,6.0,-999.0,31,-99.99,,,0.04,weatherlink.com 1.10,2013-04-14 16:27:00,
2013-04-14 12:42:00,66.6,35.0,29.99,West,267,0.0,-999.0,31,-99.99,,,0.04,weatherlink.com 1.10,2013-04-14 16:42:00,
2013-04-14 12:57:00,67.3,37.0,29.98,NNE,30,0.0,-999.0,33,-99.99,,,0.04,weatherlink.com 1.10,2013-04-14 16:57:00,
2013-04-14 13:12:00,67.6,37.0,29.97,North,0,1.0,-999.0,33,-99.99,,,0.04,weatherlink.com 1.10,2013-04-14 17:12:00,
2013-04-14 13:27:00,68.4,37.0,29.96,SSE,164,5.0,-999.0,32,-99.99,,,0.04,weatherlink.com 1.10,2013-04-14 17:27:00,
2013-04-14 13:42:00,67.4,36.0,29.96,NNE,18,11.0,-999.0,32,-99.99,,,0.04,weatherlink.com 1.10,2013-04-14 17:42:00,
2013-04-14 13:57:00,66.8,35.0,29.96,NNE,17,0.0,-999.0,31,-99.99,,,0.04,weatherlink.com 1.10,2013-04-14 17:57:00,
2013-04-14 14:12:00,67.1,39.0,29.96,North,359,0.0,-999.0,36,-99.99,,,0.04,weatherlink.com 1.10,2013-04-14 18:12:00,
2013-04-14 14:27:00,67.3,37.0,29.96,NNW,330,0.0,-999.0,33,-99.99,,,0.04,weatherlink.com 1.10,2013-04-14 18:27:00,
2013-04-14 14:42:00,67.3,40.0,29.96,ENE,64,0.0,-999.0,37,-99.99,,,0.04,weatherlink.com 1.10,2013-04-14 18:42:00,
2013-04-14 14:57:00,67.3,38.0,29.95,ESE,112,3.0,-999.0,34,-99.99,,,0.04,weatherlink.com 1.10,2013-04-14 18:57:00,
2013-04-14 15:13:00,67.3,39.0,29.95,SSW,195,2.0,-999.0,35,-99.99,,,0.04,weatherlink.com 1.10,2013-04-14 19:13:00,
2013-04-14 15:28:00,66.9,38.0,29.95,ENE,61,0.0,-999.0,35,-99.99,,,0.04,weatherlink.com 1.10,2013-04-14 19:28:00,
2013-04-14 15:43:00,66.1,39.0,29.95,NNE,24,1.0,-999.0,37,-99.99,,,0.04,weatherlink.com 1.10,2013-04-14 19:43:00,
2013-04-14 15:58:00,65.8,37.0,29.95,NE,52,0.0,-999.0,35,-99.99,,,0.04,weatherlink.com 1.10,2013-04-14 19:58:00,
2013-04-14 16:13:00,65.6,37.0,29.95,East,82,0.0,-999.0,35,-99.99,,,0.04,weatherlink.com 1.10,2013-04-14 20:13:00,
2013-04-14 16:28:00,65.0,39.0,29.96,NE,40,0.0,-999.0,39,-99.99,,,0.04,weatherlink.com 1.10,2013-04-14 20:28:00,
2013-04-14 16:43:00,64.0,38.0,29.96,South,185,3.0,-999.0,39,-99.99,,,0.04,weatherlink.com 1.10,2013-04-14 20:43:00,
2013-04-14 16:58:00,63.2,38.0,29.97,East,83,0.0,-999.0,39,-99.99,,,0.04,weatherlink.com 1.10,2013-04-14 20:58:00,
2013-04-14 17:13:00,62.6,38.0,29.97,North,0,0.0,-999.0,41,-99.99,,,0.04,weatherlink.com 1.10,2013-04-14 21:13:00,
2013-04-14 17:28:00,62.0,40.0,29.97,East,85,0.0,-999.0,44,-99.99,,,0.04,weatherlink.com 1.10,2013-04-14 21:28:00,
2013-04-14 17:43:00,61.2,38.0,29.97,WSW,256,2.0,-999.0,43,-99.99,,,0.04,weatherlink.com 1.10,2013-04-14 21:43:00,
2013-04-14 17:58:00,60.5,39.0,29.97,SE,131,0.0,-999.0,46,-99.99,,,0.04,weatherlink.com 1.10,2013-04-14 21:58:00,
2013-04-14 18:13:00,60.1,39.0,29.97,SSW,206,0.0,-999.0,46,-99.99,,,0.04,weatherlink.com 1.10,2013-04-14 22:13:00,
2013-04-14 18:28:00,59.6,39.0,29.98,East,80,0.0,-999.0,47,-99.99,,,0.04,weatherlink.com 1.10,2013-04-14 22:28:00,
2013-04-14 18:43:00,59.3,39.0,29.98,SE,126,0.0,-999.0,47,-99.99,,,0.04,weatherlink.com 1.10,2013-04-14 22:43:00,
2013-04-14 18:58:00,59.0,40.0,29.98,East,82,0.0,-999.0,50,-99.99,,,0.04,weatherlink.com 1.10,2013-04-14 22:58:00,
2013-04-14 19:13:00,58.7,40.0,29.97,East,100,0.0,-999.0,50,-99.99,,,0.04,weatherlink.com 1.10,2013-04-14 23:13:00,
2013-04-14 19:28:00,58.3,41.0,29.94,SSW,192,0.0,-999.0,52,-99.99,,,0.04,weatherlink.com 1.10,2013-04-14 23:28:00,
2013-04-14 19:43:00,57.2,42.0,29.94,NE,37,0.0,-999.0,57,-99.99,,,0.04,weatherlink.com 1.10,2013-04-14 23:43:00,
2013-04-14 19:58:00,56.5,39.0,29.93,NNW,335,0.0,-999.0,52,-99.99,,,0.04,weatherlink.com 1.10,2013-04-14 23:58:00,
2013-04-14 20:13:00,56.3,40.0,29.92,ENE,75,0.0,-999.0,54,-99.99,,,0.04,weatherlink.com 1.10,2013-04-15 00:13:00,
2013-04-14 20:28:00,56.3,41.0,29.89,ESE,103,0.0,-999.0,57,-99.99,,,0.04,weatherlink.com 1.10,2013-04-15 00:28:00,
2013-04-14 20:43:00,56.2,42.0,29.88,SE,137,1.0,-999.0,59,-99.99,,,0.04,weatherlink.com 1.10,2013-04-15 00:43:00,
2013-04-14 20:58:00,55.9,42.0,29.88,NE,47,0.0,-999.0,60,-99.99,,,0.04,weatherlink.com 1.10,2013-04-15 00:58:00,
2013-04-14 21:13:00,55.9,43.0,29.89,NE,48,0.0,-999.0,62,-99.99,,,0.04,weatherlink.com 1.10,2013-04-15 01:13:00,
2013-04-14 21:28:00,55.9,43.0,29.88,NW,309,0.0,-999.0,62,-99.99,,,0.04,weatherlink.com 1.10,2013-04-15 01:28:00,
2013-04-14 21:43:00,55.9,43.0,29.89,North,6,1.0,-999.0,63,-99.99,,,0.04,weatherlink.com 1.10,2013-04-15 01:43:00,
2013-04-14 21:58:00,55.7,44.0,29.89,WSW,244,0.0,-999.0,65,-99.99,,,0.04,weatherlink.com 1.10,2013-04-15 01:58:00,
2013-04-14 22:13:00,55.3,45.0,29.89,NNE,14,1.0,-999.0,69,-99.99,,,0.04,weatherlink.com 1.10,2013-04-15 02:13:00,
2013-04-14 22:28:00,54.1,46.0,29.89,East,86,1.0,-999.0,75,-99.99,,,0.04,weatherlink.com 1.10,2013-04-15 02:28:00,
2013-04-14 22:43:00,52.9,47.0,29.90,NE,54,1.0,-999.0,79,-99.99,,,0.04,weatherlink.com 1.10,2013-04-15 02:43:00,
2013-04-14 22:58:00,51.7,47.0,29.90,ESE,120,0.0,-999.0,84,-99.99,,,0.04,weatherlink.com 1.10,2013-04-15 02:58:00,
2013-04-14 23:13:00,51.1,46.0,29.90,North,10,0.0,-999.0,84,-99.99,,,0.04,weatherlink.com 1.10,2013-04-15 03:13:00,
2013-04-14 23:28:00,51.1,45.0,29.89,NE,55,1.0,-999.0,81,-99.99,,,0.04,weatherlink.com 1.10,2013-04-15 03:28:00,
2013-04-14 23:43:00,51.1,45.0,29.89,NE,56,2.0,-999.0,81,-99.99,,,0.04,weatherlink.com 1.10,2013-04-15 03:43:00,
2013-04-14 23:58:00,51.1,46.0,29.88,NE,48,0.0,-999.0,82,-99.99,,,0.04,weatherlink.com 1.10,2013-04-15 03:58:00,